QPF
0.00 0.00 0.00 0.00 0.00 0.00 0.00 0.00 0.00 0.00 0.00 0.00 0.00 0.00 0.00 0.00 0.00 0.00 0.00 0.00 0.00 0.00 0.00 0.00 0.00 0.00 0.00 0.00 0.00 0.00 0.00 0.00
0.00 0.00 0.00 0.00 0.00 0.00 0.00 0.00 0.00 0.00 0.00 0.00 0.00 0.00 0.00 0.00 0.00 0.00 0.00 0.00 0.00 0.00 0.00 0.00 0.00 0.00 0.00 0.00 0.00 0.00 0.00 0.00
0.00 0.00 0.00 0.00 0.00 0.00 0.00 0.00 0.00 0.00 0.00 0.00 0.00 0.00 0.00 0.00 0.00 0.00 0.00 0.00 0.00 0.00 0.00 0.00 0.00 0.00 0.00 0.00 0.00 0.00 0.00 0.00
0.00 0.00 0.00 0.00 0.00 0.00 0.00 0.00 0.00 0.00 0.00 0.00 0.00 0.00 0.00 0.00 0.00 0.00 0.00 0.00 0.00 0.00 0.00 0.00 0.00 0.00 0.00 0.00 0.00 0.00 0.00 0.00
0.00 0.00 0.00 0.00 0.00 0.00 0.00 0.00 0.00 0.00 0.00 0.00 0.00 0.00 0.00 0.00 0.00 0.00 0.00 0.00 0.00 0.00 0.00 0.00 0.00 0.00 0.00 0.00 0.00 0.00 0.00 0.00
0.00 0.00 0.00 0.00 0.00 0.00 0.00 0.00 0.00 0.00 0.00 0.00 0.00 0.00 0.00 0.00 0.00 0.00 0.00 0.00 0.00 0.00 0.00 0.00 0.00 0.00 0.00 0.00 0.00 0.00 0.00 0.00
0.00 0.00 0.00 0.00 0.00 0.00 0.00 0.00 0.00 0.00 0.00 0.00 0.00 0.00 0.00 0.00 0.00 0.00 0.00 0.00 0.00 0.00 0.00 0.00 0.00 0.00 0.00 0.00 0.00 0.00 0.00 0.00
0.00 0.00 0.00 0.00 0.00 0.00 0.00 0.00 0.00 0.00 0.00 0.00 0.00 0.00 0.00 0.00 0.00 0.00 0.00 0.00 0.00 0.00 0.00 0.00 0.00 0.00 0.00 0.00 0.00 0.00 0.00 0.00
0.00 0.00 0.00 0.00 0.00 0.00 0.00 0.00 0.00 0.00 0.00 0.00 0.00 0.00 0.00 0.00 0.00 0.00 0.00 0.00 0.00 0.00 0.00 0.00 0.00 0.00 0.00 0.00 0.00 0.00 0.00 0.00
0.00 0.00 0.00 0.00 0.00 0.00 0.00 0.00 0.00 0.00 0.00 0.00 0.00 0.00 0.00 0.00 0.00 0.00 0.00 0.00 0.00 0.00 0.00 0.00 0.00 0.00 0.00 0.00 0.00 0.00 0.00 0.00
0.00 0.00 0.00 0.00 0.00 0.00 0.00 0.00 0.00 0.00 0.00 0.00 0.00 0.00 0.00 0.00 0.00 0.00 0.00 0.00 0.00 0.00 0.00 0.00 0.00 0.00 0.00 0.00 0.00 0.00 0.00 0.00
0.00 0.00 0.00 0.00 0.00 0.00 0.00 0.00 0.00 0.00 0.00 0.00 0.00 0.00 0.00 0.00 0.00 0.00 0.00 0.00 0.00 0.00 0.00 0.00 0.00 0.00 0.00 0.00 0.00 0.00 0.00 0.00
0.00 0.00 0.00 0.00 0.00 0.00 0.00 0.00 0.00 0.00 0.00 0.00 0.00 0.00 0.00 0.00 0.00 0.00 0.00 0.00 0.00 0.00 0.00 0.00 0.00 0.00 0.00 0.00 0.00 0.00 0.00 0.00
0.00 0.00 0.00 0.00 0.00 0.00 0.00 0.00 0.00 0.00 0.00 0.00 0.00 0.00 0.00 0.00 0.00 0.00 0.00 0.00 0.00 0.00 0.00 0.00 0.00 0.00 0.00 0.00 0.00 0.00 0.00 0.00
0.00 0.00 0.00 0.00 0.00 0.00 0.00 0.00 0.00 0.00 0.00 0.00 0.00 0.00 0.00 0.00 0.00 0.00 0.00 0.00 0.00 0.00 0.00 0.00 0.00 0.00 0.00 0.00 0.00 0.00 0.00 0.00
0.00 0.00 0.00 0.00 0.00 0.00 0.00 0.00 0.00 0.00 0.00 0.00 0.00 0.00 0.00 0.00 0.00 0.00 0.00 0.00 0.00 0.00 0.00 0.00 0.00 0.00 0.00 0.00 0.00 0.00 0.00 0.00
0.00 0.00 0.00 0.00 0.00 0.00 0.00 0.00 0.00 0.00 0.00 0.00 0.00 0.00 0.00 0.00 0.00 0.00 0.00 0.00 0.00 0.00 0.00 0.00 0.00 0.00 0.00 0.00 0.00 0.00 0.00 0.00
0.00 0.00 0.00 0.00 0.00 0.00 0.00 0.00 0.00 0.00 0.00 0.00 0.00 0.00 0.00 0.00 0.00 0.00 0.00 0.00 0.00 0.00 0.00 0.00 0.00 0.00 0.00 0.00 0.01 0.01 0.00 0.00
0.00 0.00 0.00 0.00 0.00 0.00 0.00 0.00 0.00 0.00 0.00 0.00 0.00 0.00 0.00 0.00 0.00 0.00 0.00 0.00 0.00 0.00 0.00 0.00 0.00 0.00 0.01 0.01 0.01 0.00 0.01 0.01
0.00 0.00 0.00 0.00 0.00 0.00 0.00 0.00 0.00 0.00 0.00 0.00 0.00 0.00 0.00 0.00 0.00 0.00 0.00 0.00 0.00 0.00 0.00 0.00 0.01 0.01 0.01 0.01 0.02 0.01 0.01 0.01
MSLP
1023.38 1023.15 1023.94 1024.42 1024.61 1024.94 1024.96 1024.57 1024.21 1023.89 1023.58 1023.46 1022.91 1022.41 1022.23 1021.88 1021.76 1021.66 1021.43 1021.04 1020.73 1020.24 1019.81 1019.43 1018.85 1018.11 1017.43 1016.99 1016.47 1015.93 1015.16 1013.51
1023.01 1023.28 1023.24 1023.32 1023.53 1024.51 1024.50 1024.32 1024.15 1023.95 1023.79 1023.43 1022.70 1022.12 1021.98 1021.78 1021.53 1021.78 1021.50 1021.14 1020.55 1020.04 1019.62 1019.18 1018.64 1017.85 1017.11 1016.86 1016.25 1015.28 1014.31 1013.32
1023.29 1023.07 1023.34 1023.41 1023.14 1023.53 1023.57 1023.65 1023.70 1023.70 1023.65 1023.36 1022.44 1022.27 1021.99 1021.74 1021.50 1021.51 1021.12 1020.71 1020.24 1019.76 1019.32 1018.96 1018.12 1017.03 1016.65 1016.55 1015.83 1014.58 1014.62 1014.11
1023.11 1023.73 1023.75 1023.35 1023.22 1023.36 1023.28 1023.36 1023.53 1023.61 1023.77 1023.69 1022.85 1022.60 1022.40 1022.08 1021.50 1021.15 1020.72 1020.33 1019.83 1019.58 1019.02 1018.50 1017.86 1017.32 1016.59 1016.33 1015.74 1015.67 1014.93 1013.92
1023.07 1023.87 1024.15 1023.99 1023.39 1023.49 1023.38 1023.39 1023.66 1023.60 1023.94 1024.22 1023.50 1022.93 1022.77 1022.28 1021.69 1021.30 1020.86 1020.30 1019.91 1019.65 1019.00 1018.61 1018.49 1017.93 1017.24 1016.87 1016.45 1015.88 1015.09 1014.45
1023.42 1023.96 1024.31 1024.31 1023.85 1023.65 1023.75 1023.73 1024.05 1023.99 1024.23 1024.65 1024.13 1023.44 1023.25 1022.82 1022.24 1021.78 1021.30 1020.82 1020.45 1020.02 1019.38 1019.07 1018.44 1017.82 1017.38 1016.86 1016.54 1016.05 1015.41 1015.14
1023.87 1024.27 1024.52 1024.41 1024.21 1024.34 1024.19 1024.23 1024.26 1024.47 1024.39 1024.86 1024.74 1024.18 1023.89 1023.28 1022.65 1022.12 1021.72 1021.36 1020.91 1020.22 1019.68 1019.13 1018.35 1017.64 1017.18 1016.83 1016.45 1015.87 1015.41 1015.18
1024.19 1024.49 1024.76 1024.57 1024.54 1024.69 1024.46 1024.61 1024.59 1024.58 1024.65 1025.09 1025.16 1024.85 1024.52 1023.74 1022.92 1022.52 1022.28 1021.88 1021.28 1020.62 1020.16 1019.36 1018.64 1018.01 1017.23 1016.86 1016.28 1015.66 1015.23 1015.21
1024.24 1024.32 1024.83 1024.94 1024.77 1024.77 1024.58 1024.97 1024.84 1024.79 1024.83 1025.02 1025.40 1025.18 1024.92 1024.24 1023.31 1022.95 1022.87 1022.26 1021.50 1020.93 1020.40 1019.64 1018.89 1017.99 1017.41 1017.00 1016.07 1015.37 1015.03 1015.31
1024.38 1024.48 1024.60 1024.86 1025.18 1024.99 1025.01 1025.21 1024.98 1024.90 1024.95 1025.05 1025.55 1025.32 1025.21 1024.46 1023.55 1023.34 1023.35 1022.26 1021.68 1021.22 1020.72 1020.00 1019.28 1018.41 1017.95 1017.17 1016.11 1015.30 1014.94 1015.07
1024.29 1024.69 1024.86 1025.01 1025.09 1024.82 1024.58 1024.65 1024.77 1024.88 1024.99 1025.30 1025.64 1025.33 1025.27 1024.72 1023.94 1023.75 1023.49 1022.51 1022.14 1021.66 1021.11 1020.63 1019.78 1018.99 1018.29 1017.27 1016.18 1015.30 1014.97 1014.92
1024.45 1024.71 1025.14 1024.97 1024.66 1024.44 1024.19 1024.14 1024.26 1024.70 1024.94 1025.42 1025.62 1025.38 1025.26 1024.75 1024.17 1023.92 1023.62 1022.81 1022.40 1022.10 1021.54 1021.12 1020.49 1019.68 1018.70 1017.30 1015.76 1015.27 1015.26 1015.08
1024.41 1024.84 1025.21 1024.98 1024.61 1024.61 1024.53 1024.34 1024.32 1024.52 1024.77 1025.27 1025.50 1025.62 1025.31 1024.91 1024.46 1024.09 1023.81 1023.22 1022.72 1022.36 1021.86 1021.45 1020.94 1020.32 1019.19 1017.80 1016.16 1015.08 1015.68 1015.92
1024.48 1024.74 1025.24 1025.32 1025.05 1024.99 1024.93 1024.48 1024.28 1024.56 1024.69 1024.94 1025.25 1025.60 1025.43 1025.05 1024.86 1024.39 1024.07 1023.57 1022.94 1022.63 1022.25 1022.03 1021.85 1021.22 1020.31 1019.04 1017.49 1015.57 1016.39 1016.39
1024.43 1024.90 1025.31 1025.81 1025.89 1025.12 1024.94 1024.31 1024.15 1024.41 1024.73 1024.75 1025.18 1025.37 1025.34 1025.25 1025.10 1024.76 1024.37 1023.89 1023.28 1022.97 1022.98 1023.10 1023.05 1022.12 1021.66 1020.90 1019.93 1018.88 1018.50 1016.39
1024.65 1025.20 1025.60 1025.95 1026.19 1025.66 1025.45 1025.00 1024.85 1025.08 1025.03 1025.08 1025.06 1025.15 1025.20 1025.08 1025.10 1024.81 1024.52 1024.17 1023.71 1023.42 1023.54 1024.32 1024.21 1023.37 1022.79 1022.29 1022.03 1021.18 1020.09 1018.25
1024.91 1025.38 1025.84 1026.24 1026.29 1026.27 1025.89 1025.73 1025.62 1025.47 1025.40 1025.29 1025.01 1024.92 1024.95 1024.92 1025.14 1024.89 1024.70 1024.41 1024.04 1023.79 1023.97 1024.38 1024.32 1024.05 1023.57 1023.03 1022.42 1021.61 1020.86 1020.39
1024.96 1025.47 1026.16 1026.46 1026.55 1026.51 1026.46 1026.38 1026.20 1025.91 1025.82 1025.43 1025.31 1024.99 1024.78 1024.79 1025.05 1024.93 1024.81 1024.76 1024.28 1024.04 1024.53 1024.65 1024.47 1024.24 1023.89 1023.34 1022.86 1022.36 1021.63 1021.07
1025.14 1025.65 1026.32 1026.57 1026.68 1026.65 1026.68 1026.61 1026.31 1026.06 1026.10 1025.86 1025.65 1025.36 1025.10 1025.28 1025.21 1025.01 1024.94 1024.99 1024.47 1024.62 1025.03 1024.67 1024.30 1024.18 1023.99 1023.44 1022.92 1022.46 1022.11 1021.50
1025.27 1025.66 1026.18 1026.60 1026.74 1026.74 1026.84 1026.86 1026.65 1026.48 1026.58 1026.39 1025.99 1025.85 1025.67 1025.78 1025.72 1025.50 1025.21 1025.02 1024.50 1025.03 1024.99 1024.43 1024.07 1023.81 1023.55 1023.28 1022.86 1022.35 1021.95 1021.58
Thickness
5648 5645 5637 5630 5625 5618 5613 5611 5609 5606 5604 5600 5599 5597 5594 5591 5588 5584 5580 5578 5575 5573 5570 5565 5564 5563 5563 5562 5562 5562 5564 5573
5646 5640 5637 5631 5626 5615 5610 5606 5602 5599 5596 5593 5592 5591 5587 5584 5580 5573 5569 5565 5563 5560 5556 5551 5547 5547 5545 5540 5541 5544 5548 5552
5640 5638 5630 5624 5622 5615 5609 5605 5601 5595 5589 5586 5586 5581 5577 5574 5570 5564 5560 5555 5551 5547 5541 5534 5532 5531 5527 5519 5518 5523 5521 5523
5637 5628 5622 5619 5614 5610 5607 5602 5595 5588 5580 5575 5574 5570 5564 5560 5558 5553 5548 5542 5537 5531 5526 5518 5511 5503 5500 5498 5497 5497 5500 5508
5633 5621 5614 5610 5610 5604 5600 5594 5586 5580 5571 5562 5560 5557 5552 5549 5545 5539 5532 5527 5519 5511 5504 5495 5484 5477 5475 5472 5474 5478 5482 5486
5626 5616 5609 5604 5601 5597 5591 5585 5576 5569 5560 5549 5546 5544 5538 5533 5529 5522 5516 5509 5499 5488 5479 5468 5462 5458 5457 5457 5458 5461 5465 5466
5618 5610 5603 5598 5593 5586 5581 5574 5567 5557 5550 5539 5531 5527 5522 5518 5514 5507 5498 5488 5478 5467 5456 5447 5445 5445 5444 5444 5444 5449 5452 5453
5611 5604 5596 5590 5584 5577 5572 5564 5555 5547 5538 5526 5518 5512 5506 5503 5498 5488 5476 5466 5455 5445 5436 5432 5431 5431 5433 5432 5434 5439 5441 5442
5604 5599 5588 5580 5575 5568 5562 5551 5544 5535 5526 5517 5506 5499 5491 5486 5480 5469 5457 5446 5436 5428 5423 5420 5420 5421 5422 5422 5426 5431 5433 5431
5597 5590 5583 5574 5564 5559 5550 5540 5534 5525 5516 5506 5494 5486 5476 5469 5463 5451 5436 5429 5420 5415 5412 5410 5408 5411 5410 5412 5417 5423 5426 5425
5592 5582 5574 5566 5557 5552 5546 5538 5528 5516 5506 5493 5482 5474 5461 5453 5445 5432 5418 5414 5408 5404 5401 5398 5398 5398 5399 5403 5409 5415 5417 5418
5585 5577 5565 5559 5552 5546 5539 5531 5520 5507 5496 5482 5471 5461 5449 5439 5429 5416 5404 5401 5396 5391 5387 5383 5383 5384 5387 5395 5405 5407 5407 5409
5580 5569 5558 5551 5546 5538 5529 5520 5509 5498 5486 5473 5460 5446 5435 5424 5412 5401 5392 5388 5384 5378 5375 5371 5368 5368 5375 5382 5392 5400 5396 5393
5573 5564 5551 5541 5535 5526 5517 5510 5501 5488 5477 5464 5449 5433 5421 5409 5396 5387 5380 5375 5371 5365 5362 5358 5353 5353 5356 5364 5372 5387 5381 5381
5567 5556 5544 5530 5521 5516 5507 5501 5491 5479 5465 5452 5437 5422 5408 5395 5382 5374 5368 5362 5358 5353 5347 5339 5334 5335 5335 5337 5340 5349 5349 5370
5559 5546 5534 5522 5510 5503 5495 5488 5478 5464 5452 5439 5425 5412 5397 5384 5372 5363 5356 5349 5344 5338 5330 5317 5312 5313 5312 5312 5308 5315 5323 5342
5550 5537 5524 5511 5501 5490 5483 5472 5462 5452 5440 5427 5415 5401 5387 5375 5362 5353 5344 5337 5330 5324 5315 5304 5297 5293 5290 5290 5290 5293 5301 5305
5542 5528 5513 5501 5490 5480 5470 5459 5449 5439 5426 5416 5402 5390 5378 5366 5353 5343 5334 5324 5317 5311 5299 5289 5283 5277 5274 5274 5273 5273 5275 5280
5532 5519 5503 5492 5481 5471 5460 5450 5440 5429 5415 5403 5390 5378 5368 5354 5343 5334 5325 5313 5307 5297 5284 5278 5273 5268 5263 5262 5261 5259 5259 5261
5523 5511 5497 5483 5472 5463 5451 5439 5428 5417 5402 5390 5379 5367 5356 5342 5331 5322 5314 5304 5297 5284 5274 5271 5266 5260 5255 5250 5248 5246 5246 5247